OBJECT J, 51832

Orbit data source: Space-Track

You're viewing an Uncataloged Satellite

Recently launched and/or uncataloged satellites may have evolving metadata. Metadata may include but not limited to: Owner, Maufacturer, Bus, Motor, and Mission.

OBJECT J, 51832 is a Chinese satellite in SSO that was launched on Sun, 27 Feb 2022 UTC via a CHANG ZHENG 8 launch vehicle from the Wenchang Satellite Launch Center (WSC). Unknown objects in Earth's orbit typically refer to objects detected orbiting the Earth but have not yet been identified or cataloged. These objects could be anything from previously untracked satellites, spent rocket stages, debris from satellite collisions, or even natural meteoroids temporarily captured by Earth's gravity.

Loading next visibility...
Identifier
51832, 2022-019J
Orbit
SSO
Country
Flag of CNCN / PRC
Related business
None
Manufacturer
Unknown
Mission
Non-operational Civil Imaging
Bus & Motor
Unknown
Mass
Unknown
Launch date (UTC)
2022-02-27 (4 years ago)
Launch vehicle
CHANG ZHENG 8
Launch site
Wenchang Satellite Launch Center (WSC)
Object type
Unknown
Shape & HBR
Box + 2 Pan, 1.0 m
Radar Cross Section
0.583 m², Large (>1 m²)

Expand to show TLE details & history
Last TLE update: 23 hours ago

TLE from 23 hours ago
0 OBJECT J
1 51832U 22019J   26172.48433641  .00002084  00000-0  98512-4 0  9997
2 51832  97.3425 235.1842 0007765 203.7529 156.3349 15.20455754238450
Epoch: 2026-06-21T11:37Z
TLE epoch observation values (Epoch: 2026-06-21T11:37:26.665Z)
Latitude
-0.00007°
Longitude
151.13916°
Altitude
512.454 km
Speed
7.605 km/s
True Right ascension
15h 40m 44s
True Declination
0° 00' 00"
Sunlit
Object was in full shadow at epoch
Visualization orbit readout
Latitude
Unknown
Longitude
Unknown
Altitude
Unknown
Speed
Unknown
Apparent Right ascension
Unknown
Apparent Declination
Unknown
Sunlit
N/A
Visualization observer readout
Local Sidereal Time
21:55:37
Azimuth
Unknown
Elevation
Unknown
Doppler factor
Unknown
Orbital elements
Apogee altitude
506.769 km
Perigee altitude
496.085 km
Semi-major axis
6,879.564 km
Eccentricity
0.00078
Inclination
97.3425°
RAAN
235.1842°
Arg. of periapsis
203.7529°
True anomaly
156.37058°
Mean anomaly
156.3349°
Eccentric anomaly
156.35275°
Mean motion
3.80366 °/min
Orbital period
94.65 mins
BSTAR
0.000098512
Loading maneuver chart data...
Computing Atmospheric mass density...
Loading historical data...
Loading historical data...
Loading historical data...
Loading historical data...
Loading historical data...
Loading historical data...
Loading historical data...

Documentation

Showing up to 5 results
|